Vorticity
8 9 8 8 7 6 6 5 5 5 5 5 6 7 8 8 6 3 2 2 2 2 2 2 3 7 13 19 19 12 7 5 6 5 6 7 5 3 4 7 11 11 9 9 8 8 9 9 8 8 6 5 6 4 4 5 4 5 7 7 7 6 5 5 4 4 4 4 5 5 5 7 6 6 7 6 5 5 5 5 6 6 7 8 7 7 6 6
9 8 8 8 7 6 6 5 5 5 5 5 5 5 7 9 9 7 4 2 2 2 2 1 3 4 5 9 16 20 15 8 6 4 6 7 6 6 5 7 11 11 9 7 7 8 8 9 7 7 6 5 5 5 4 3 4 5 6 7 7 4 4 5 4 4 4 3 4 4 4 6 7 6 6 6 5 5 5 7 7 6 6 7 7 7 6 6
10 10 9 9 8 8 6 5 5 4 5 5 5 5 5 7 9 10 8 5 2 2 2 1 2 4 5 3 7 15 18 17 9 2 8 9 4 6 6 6 9 9 9 7 7 8 8 8 7 6 6 5 5 4 3 3 4 4 6 8 5 1 3 4 4 4 4 3 3 3 4 5 6 7 7 6 6 6 7 7 7 7 6 6 5 4 4 6
11 11 11 10 10 9 8 7 6 5 5 5 6 6 6 6 7 9 10 8 6 3 2 2 3 3 4 3 3 6 10 19 15 4 7 8 4 6 5 6 7 6 8 9 7 7 7 8 7 7 6 6 6 5 5 6 5 5 9 8 2 3 5 4 3 4 4 3 3 3 4 5 5 8 8 7 6 6 6 6 7 8 8 6 4 3 3 5
12 12 12 12 12 12 11 11 10 9 8 8 8 7 7 7 6 8 9 10 9 6 4 3 3 4 3 3 4 5 5 12 15 9 9 6 4 6 5 6 7 5 7 10 8 7 7 7 6 7 6 6 7 7 7 8 6 8 9 2 1 4 6 5 5 5 5 5 5 5 5 5 5 7 7 6 7 8 9 10 11 11 10 7 4 4 5 6
12 12 13 13 12 13 12 13 13 12 12 11 10 9 8 8 7 8 8 10 10 9 7 5 4 4 4 3 3 5 4 6 12 13 13 8 4 5 5 5 7 6 7 9 10 8 7 7 7 7 7 7 6 6 8 8 7 9 6 2 4 4 3 5 4 4 6 6 5 4 4 5 6 7 7 7 7 9 11 12 12 12 9 5 4 5 5 5
11 11 11 11 11 12 12 12 12 12 13 12 11 10 9 8 8 8 8 10 11 10 8 7 7 5 4 4 4 5 2 6 12 12 13 12 6 4 4 4 6 8 8 8 8 8 7 7 7 8 7 7 7 5 6 5 6 7 4 4 5 4 6 5 4 5 6 5 5 3 4 6 6 8 9 7 7 8 10 10 10 8 5 4 5 6 5 6
9 10 10 11 11 11 11 11 11 11 11 12 11 11 10 10 9 9 9 10 11 11 10 9 8 6 6 5 5 6 2 6 11 9 12 14 10 7 5 4 5 7 9 8 6 6 7 6 6 8 8 7 7 7 6 3 4 7 7 7 5 6 6 5 5 6 5 5 4 5 7 6 7 8 8 7 5 7 8 8 8 6 6 7 7 7 8 9
7 7 8 9 10 10 10 10 11 11 10 11 11 11 11 10 10 10 10 10 11 11 11 10 9 8 7 6 6 6 4 6 8 8 12 13 11 9 7 6 6 7 8 8 6 7 9 8 7 8 8 8 7 6 6 5 7 9 6 4 5 6 5 5 7 6 5 5 5 8 8 7 8 7 6 7 6 6 6 6 7 7 7 8 8 8 9 9
5 6 6 7 8 8 9 10 10 10 10 10 10 11 11 10 10 10 9 9 10 11 11 10 10 8 7 7 6 6 6 7 8 9 10 11 11 8 6 6 6 7 8 8 8 8 9 8 6 7 7 8 7 6 6 6 9 7 1 1 4 5 5 6 7 5 6 6 6 7 6 8 10 8 7 6 4 7 8 8 9 10 11 10 9 8 7 6
4 5 5 7 8 8 8 8 9 9 9 9 10 10 10 10 10 10 9 9 8 8 9 9 9 8 8 6 6 8 8 8 8 8 8 10 11 9 6 5 6 7 8 8 9 8 7 5 5 6 7 7 8 8 7 7 9 6 2 5 7 6 6 6 6 5 6 6 4 4 7 11 10 7 8 4 4 9 11 12 13 13 12 10 8 6 5 4
5 4 5 6 7 8 8 8 8 8 8 8 9 9 9 10 10 10 10 10 8 6 6 8 8 8 7 5 7 9 7 8 8 8 9 10 12 11 6 4 6 9 10 9 8 8 7 6 6 6 6 7 7 8 8 7 7 5 4 7 7 6 6 6 6 5 5 4 4 8 10 9 9 9 7 5 7 11 11 11 11 10 8 7 6 5 4 4
6 5 5 6 7 8 9 9 8 8 7 7 7 7 8 9 9 9 10 11 10 8 7 6 6 8 7 6 9 8 6 9 10 10 11 11 14 13 6 2 4 7 10 12 10 9 8 7 6 5 6 7 7 7 7 7 8 6 5 6 5 6 6 6 7 4 5 6 9 15 10 4 7 8 5 8 13 13 12 10 7 6 4 4 4 4 5 5
7 7 6 7 7 8 9 10 9 9 7 7 6 6 6 7 8 8 8 8 8 8 8 7 7 9 7 7 9 7 7 10 12 14 13 13 16 14 7 3 2 4 7 11 12 9 9 9 7 5 5 6 6 7 7 7 8 5 4 5 4 6 7 5 6 6 8 10 11 13 10 6 7 5 6 12 13 11 10 8 6 5 4 4 5 5 4 4
8 8 8 8 8 9 10 10 10 10 9 7 6 6 6 7 7 7 6 6 6 7 7 7 7 8 8 10 10 7 8 14 18 16 11 12 14 13 9 5 3 3 4 8 11 9 8 8 9 7 6 6 6 6 7 8 8 5 5 6 6 8 9 6 6 8 9 9 9 7 6 10 10 5 8 12 9 7 6 5 5 5 5 6 7 5 4 6
9 9 9 9 10 10 11 11 11 11 10 9 8 7 7 7 8 8 8 8 7 7 7 8 8 8 10 10 8 8 12 17 17 11 11 13 12 11 10 8 4 1 2 7 10 11 9 7 7 8 8 7 7 7 6 7 7 6 6 7 8 10 10 8 5 6 9 7 7 4 3 10 12 8 9 9 7 6 6 6 6 6 7 8 7 6 7 8
12 12 11 11 12 12 12 12 11 11 11 10 10 9 8 8 10 10 9 10 10 9 9 8 8 9 11 12 13 14 16 16 11 10 14 13 9 9 10 9 5 2 3 6 9 10 10 9 6 5 9 8 8 8 6 7 8 7 8 9 12 11 9 9 7 5 6 6 5 2 2 8 9 9 8 4 4 7 6 5 5 4 4 5 6 7 9 10
15 14 14 14 13 13 13 12 12 12 12 12 12 11 10 10 11 11 11 11 11 11 12 12 13 14 16 18 17 13 12 13 11 12 13 10 8 9 9 9 5 4 5 5 8 10 9 11 8 5 7 8 8 8 7 8 9 10 11 12 15 12 7 8 8 6 5 4 4 2 6 10 8 7 4 1 2 3 3 2 1 1 2 5 6 6 6 8
16 16 16 15 15 15 13 13 14 13 13 14 13 13 14 13 12 12 11 11 13 16 17 16 17 18 18 17 13 11 14 14 12 13 12 10 11 10 9 8 4 5 7 5 6 9 8 10 10 7 6 7 9 9 9 10 9 11 13 13 15 13 7 5 6 8 6 1 1 7 12 10 5 3 1 1 1 0 2 3 1 3 4 6 6 3 4 6
15 15 15 15 15 15 15 15 15 16 16 16 16 17 16 13 12 11 9 12 16 16 14 13 15 15 14 13 11 12 16 13 11 13 10 9 11 10 8 7 4 4 7 7 6 9 11 11 11 8 5 7 10 11 11 10 9 11 14 14 15 14 9 5 5 6 2 3 12 19 16 8 3 4 2 2 2 1 2 2 2 4 4 5 4 3 5 7
15 16 16 16 16 16 17 17 17 18 17 17 19 19 14 12 13 12 14 18 19 16 18 19 17 15 14 14 13 12 11 11 12 12 10 10 10 8 7 7 5 2 6 10 7 8 12 12 11 7 5 9 10 12 13 11 10 11 16 19 15 12 10 7 7 2 3 18 28 21 11 4 2 5 6 5 4 4 2 3 4 3 4 6 7 11 12 9
17 17 17 17 17 18 18 18 18 18 18 21 21 15 11 14 17 17 19 21 20 18 18 18 17 18 18 15 14 14 13 12 12 12 12 11 9 8 8 6 4 3 7 12 10 9 11 12 9 5 7 10 9 12 12 11 12 11 16 17 8 8 13 12 8 4 13 28 24 9 2 1 2 5 6 4 2 2 2 3 3 4 9 10 10 13 12 9
18 18 19 18 19 19 19 19 19 21 23 21 15 11 15 20 22 22 21 20 20 18 16 16 17 18 16 14 12 13 14 13 11 13 13 11 9 9 8 5 6 5 8 14 12 12 13 12 8 3 6 11 12 12 10 11 14 12 15 11 4 10 12 9 8 8 18 19 5 -0 0 -1 4 7 4 2 2 1 2 3 4 6 8 9 8 6 6 7
20 20 20 20 21 21 20 21 23 25 22 16 12 17 22 24 23 21 20 21 19 16 17 17 14 13 13 12 11 11 11 11 11 13 12 10 9 9 8 7 8 9 12 15 12 13 15 11 7 6 8 11 12 10 8 11 14 12 13 6 4 12 8 4 7 9 15 9 -4 -0 4 3 6 6 1 1 1 1 3 5 6 6 7 9 8 3 3 7
21 22 23 23 22 23 23 24 27 25 19 16 19 23 22 21 22 20 19 21 19 16 16 14 13 14 12 8 10 12 10 9 10 12 12 11 11 10 9 10 12 13 16 16 10 10 11 8 8 10 11 11 11 9 8 11 13 12 11 4 3 11 8 4 6 6 10 5 -4 0 5 4 3 1 1 0 -0 2 4 6 8 9 10 9 8 8 7 8
23 24 24 23 25 28 25 23 22 18 15 17 19 19 19 20 21 19 17 17 18 16 14 13 14 14 11 9 14 13 9 10 10 10 11 12 12 10 10 13 14 16 18 16 11 8 8 8 10 11 12 11 10 10 9 10 11 9 9 7 6 11 11 7 5 5 6 2 -1 1 2 3 4 2 0 -3 -0 3 2 4 8 10 10 7 6 10 11 10
25 27 27 29 28 27 22 17 16 14 14 15 15 17 19 19 17 15 14 13 16 16 14 14 12 12 14 13 14 10 8 12 10 6 10 14 13 9 8 11 13 17 18 14 11 7 6 10 12 11 11 12 9 9 11 12 11 10 13 13 10 12 15 10 4 4 3 1 2 2 -1 1 4 4 1 -1 3 4 0 1 6 7 8 6 5 7 6 7
27 27 32 29 17 15 18 15 13 13 13 12 14 17 15 14 12 10 13 13 16 18 13 14 11 9 14 13 11 11 11 14 13 8 10 13 13 11 9 8 8 16 19 16 15 12 9 14 17 16 14 13 10 10 13 13 13 15 19 18 12 10 12 8 5 5 4 4 4 4 3 -0 -1 -1 1 3 5 3 -1 0 7 9 5 1 3 8 6 3
22 15 26 26 13 11 13 14 14 12 12 12 15 16 12 11 7 8 15 11 16 22 11 11 13 6 11 14 8 8 10 12 14 15 13 9 9 11 13 12 8 11 15 14 18 18 14 14 15 16 15 12 12 13 12 11 14 17 19 17 8 5 8 6 6 6 4 5 5 4 5 1 -1 -0 2 4 4 2 -0 2 9 11 6 1 2 6 6 5
11 5 22 27 14 9 8 11 14 9 11 13 13 13 8 7 8 11 16 7 12 24 12 8 13 7 10 13 7 8 10 10 10 13 15 14 12 12 11 12 11 12 10 8 13 16 12 11 12 12 11 9 9 12 10 7 14 18 15 11 5 4 8 6 5 6 3 5 6 4 3 1 -0 1 4 5 2 -0 1 4 10 11 7 4 3 4 5 6
6 10 25 19 3 12 18 13 12 11 14 11 7 10 5 5 12 12 12 6 7 21 15 6 10 10 10 9 8 11 10 9 10 10 12 13 12 11 9 8 9 11 9 6 12 13 8 8 11 10 10 10 8 10 9 5 10 15 12 10 6 3 6 5 2 3 2 4 6 2 0 0 1 4 5 3 1 0 2 5 9 9 6 5 4 5 6 8
9 13 25 15 2 15 16 8 16 16 13 12 9 10 5 5 13 9 7 5 7 19 15 4 6 9 9 10 13 18 15 10 9 8 10 12 10 11 11 10 9 10 8 8 11 12 10 11 11 9 10 11 9 8 8 5 7 10 9 9 8 4 4 5 1 1 2 4 3 -2 -1 1 2 6 6 1 -1 -0 1 5 8 7 5 5 5 6 7 10
8 6 16 12 8 15 7 8 23 13 7 16 15 10 7 8 13 9 5 1 4 20 20 6 4 7 11 13 13 19 21 15 11 9 9 12 14 13 12 11 11 11 14 14 11 9 11 12 11 9 9 10 9 8 8 7 6 8 7 6 6 4 4 2 -1 -2 -2 -2 -3 -2 3 4 2 7 7 -1 -3 1 4 7 8 7 5 4 5 6 6 8
6 4 9 8 12 24 22 17 18 8 7 16 13 9 10 11 14 12 9 1 -4 11 20 9 4 8 12 15 13 15 17 13 15 16 11 11 12 12 12 11 10 12 17 17 12 9 10 10 10 9 8 9 11 11 10 10 11 12 11 9 8 6 6 5 2 0 -2 -3 -1 2 5 5 1 3 3 -3 -2 2 5 6 5 5 5 4 5 5 6 9
11 8 8 7 8 17 24 21 16 11 10 13 12 10 9 12 16 11 9 6 -2 4 16 9 6 11 8 9 14 17 15 9 10 15 16 17 14 10 13 13 10 15 17 13 10 10 9 10 12 11 10 10 11 12 12 12 13 14 12 11 10 8 8 10 9 8 7 4 4 4 3 3 1 1 2 0 1 4 6 6 3 2 5 6 7 6 8 11
14 11 10 9 5 9 19 23 19 13 11 13 9 6 9 11 13 7 7 12 3 2 18 19 18 20 8 4 12 13 12 9 8 11 14 20 17 9 12 15 14 20 19 11 8 9 9 11 12 11 12 12 9 10 14 16 13 13 13 12 10 11 9 9 10 10 9 7 6 6 4 2 -1 -2 1 2 3 5 5 4 5 9 12 10 9 9 10 12
10 10 8 6 5 9 19 21 16 13 16 16 7 7 13 11 10 7 7 18 7 -1 20 26 20 16 6 5 10 7 7 7 8 12 11 15 16 8 11 18 19 22 21 14 11 12 13 13 12 10 11 11 9 9 13 15 12 11 15 13 10 11 10 8 7 7 7 5 4 6 6 5 2 -2 0 3 5 4 -2 0 11 17 18 14 10 10 11 10
7 7 5 10 15 16 20 20 18 18 18 14 10 11 13 12 12 1 3 23 14 3 22 21 9 10 6 7 11 6 6 7 8 14 12 12 14 9 10 16 18 19 18 16 13 13 15 12 9 7 6 6 8 9 8 8 6 4 7 11 9 9 10 10 8 5 6 5 3 5 6 6 5 3 3 4 4 6 7 9 11 6 5 10 10 9 10 8
12 12 15 25 30 26 22 19 20 17 10 11 11 12 16 11 -1 -6 9 24 9 10 31 20 8 17 12 10 15 9 7 9 11 13 12 12 12 10 11 11 13 14 14 15 12 12 13 9 6 5 4 3 3 5 4 2 3 -1 -2 3 5 4 6 9 11 10 10 11 10 12 11 10 10 7 6 6 6 12 14 11 8 3 2 7 11 12 10 7
16 21 26 30 28 21 15 15 17 10 6 13 13 16 18 -1 -13 3 15 10 9 30 42 21 12 21 16 14 19 13 9 10 13 12 11 12 10 10 13 10 9 10 11 13 10 9 11 6 5 6 5 6 4 4 5 4 5 4 0 3 6 6 8 9 10 11 11 12 15 17 18 17 15 12 10 11 10 11 8 6 7 8 9 9 10 13 11 8
21 28 29 24 17 13 12 13 12 8 10 17 16 17 8 -12 -5 13 9 15 39 44 28 12 11 16 16 16 16 13 11 9 10 8 7 11 9 10 15 11 7 7 8 9 7 6 8 5 5 7 5 8 8 7 10 10 9 9 7 8 10 12 16 17 14 12 11 9 9 12 15 15 14 13 12 12 10 9 9 10 11 10 12 15 15 13 11 10
25 28 22 16 15 14 15 12 8 12 16 17 16 8 -8 -11 10 18 17 41 50 26 11 11 8 9 14 16 12 10 9 7 7 6 6 11 9 10 17 14 9 6 4 8 9 6 8 5 3 5 4 6 7 6 9 10 10 9 7 7 6 6 13 18 17 16 17 17 11 8 9 9 9 8 7 6 7 11 13 13 12 13 14 15 13 10 9 8
13 22 16 10 13 12 11 10 12 17 16 14 9 -4 -8 6 22 25 30 36 23 12 19 14 3 8 14 12 9 3 3 8 7 6 9 11 7 11 18 17 12 9 5 8 9 6 8 7 2 3 6 6 5 4 4 4 6 7 6 6 5 3 7 16 16 11 12 16 15 12 11 9 9 9 8 8 10 12 13 12 12 15 15 11 9 8 8 8
10 25 15 8 11 10 9 11 15 15 11 10 -1 -9 8 22 22 26 24 15 10 14 19 10 3 10 12 11 11 4 5 11 7 4 10 10 7 10 17 16 13 11 8 9 10 9 11 9 2 1 4 4 2 1 2 4 4 4 4 5 6 4 5 11 13 7 5 8 9 10 11 9 9 13 14 15 17 15 12 13 14 13 12 10 8 7 8 9
18 26 14 10 11 9 11 12 14 12 9 7 -6 -6 19 21 14 20 10 4 15 9 8 16 8 5 10 9 6 3 6 12 8 4 8 9 8 10 13 16 14 12 11 11 11 12 12 10 6 3 3 5 5 1 0 2 3 4 6 7 8 10 10 10 8 6 4 5 5 5 7 8 9 11 13 13 14 11 9 9 7 5 7 8 8 8 8 9
18 21 14 12 11 10 14 12 11 8 2 5 1 0 15 13 11 16 -0 -0 13 1 7 23 6 3 15 3 -3 4 5 11 14 8 5 6 9 11 12 14 13 13 13 11 10 11 11 11 10 6 3 5 7 5 3 2 2 5 8 10 11 12 12 12 11 9 5 3 5 5 6 9 10 10 10 9 8 6 8 6 2 9 17 14 8 7 6 7
13 21 16 11 11 13 15 10 7 3 -3 8 12 4 10 13 11 10 -2 -1 7 -1 9 17 -3 3 16 0 4 16 6 4 12 14 12 7 5 9 11 12 12 11 14 14 11 10 9 9 10 9 4 2 5 7 6 5 4 4 6 8 10 11 11 12 12 11 8 6 5 6 6 7 8 7 6 5 4 5 8 7 7 15 14 3 1 4 3 3
13 26 19 13 13 15 17 8 1 2 0 11 17 8 11 16 9 4 -0 2 6 1 5 7 -6 1 12 2 7 17 7 1 2 7 13 11 8 8 8 11 12 10 11 13 13 13 10 6 6 9 8 6 7 9 9 9 6 5 4 2 2 4 6 10 13 12 11 9 6 6 6 5 4 4 4 3 2 3 6 7 8 9 0 -8 -2 3 2 2
13 23 20 18 14 16 20 4 -4 4 -0 5 20 15 13 16 7 3 1 1 6 4 3 7 -0 -1 6 3 2 10 15 12 3 0 4 5 7 8 6 10 13 12 12 11 12 15 13 8 5 6 7 4 2 3 6 10 10 9 7 3 4 7 4 3 7 9 11 12 9 6 5 3 2 2 2 3 3 2 5 8 12 12 8 5 8 9 9 10
12 18 23 21 12 17 17 -5 -5 7 -5 -0 21 19 15 15 7 6 4 -2 2 4 5 11 6 1 5 5 1 4 12 12 5 4 4 2 2 3 4 9 9 10 14 13 12 15 14 10 8 7 7 5 3 3 3 6 13 15 11 4 4 10 11 9 8 7 8 10 9 8 7 5 5 5 4 5 5 4 6 9 14 15 14 11 11 12 14 14
12 20 24 16 9 18 11 -11 -2 9 -7 1 19 14 15 18 7 5 6 -0 1 2 1 5 6 6 9 10 6 2 5 8 4 3 5 4 3 2 4 8 8 8 12 11 11 14 14 14 12 10 10 8 6 7 3 -0 3 8 9 7 1 -1 1 4 4 3 4 4 5 7 9 8 6 3 3 4 4 4 6 8 9 10 11 10 8 8 10 8
18 28 22 10 11 20 7 -8 5 6 -8 3 15 8 14 20 12 6 5 4 6 3 2 5 5 5 7 9 9 3 3 7 5 3 4 3 5 7 5 7 10 10 12 12 9 8 9 12 12 12 12 10 8 9 7 3 0 -0 3 7 7 3 1 2 2 1 2 3 4 6 10 12 10 6 3 3 3 4 8 9 5 3 7 10 8 6 5 3
Height
5711 5712 5713 5714 5715 5717 5718 5719 5721 5722 5724 5725 5727 5728 5730 5732 5733 5735 5736 5738 5739 5741 5742 5743 5745 5746 5747 5749 5751 5753 5755 5757 5760 5764 5764 5762 5764 5768 5769 5772 5774 5775 5776 5778 5779 5781 5783 5785 5788 5790 5792 5794 5796 5798 5800 5802 5805 5807 5808 5811 5813 5814 5815 5817 5818 5819 5820 5821 5822 5823 5825 5826 5827 5828 5829 5829 5830 5831 5832 5833 5833 5834 5834 5834 5834 5835 5836 5837
5705 5706 5707 5709 5710 5711 5712 5714 5715 5717 5718 5720 5721 5723 5724 5726 5728 5730 5732 5733 5735 5736 5738 5739 5740 5742 5744 5745 5747 5749 5751 5753 5757 5760 5758 5758 5763 5765 5767 5769 5771 5772 5774 5775 5776 5778 5780 5782 5785 5787 5789 5791 5793 5795 5798 5800 5802 5804 5806 5808 5810 5811 5813 5814 5815 5817 5818 5819 5820 5821 5823 5824 5825 5826 5827 5827 5828 5829 5830 5830 5831 5831 5831 5831 5832 5833 5834 5836
5700 5700 5701 5703 5704 5705 5707 5708 5709 5711 5712 5714 5716 5717 5719 5721 5723 5725 5726 5728 5730 5732 5733 5735 5736 5738 5740 5742 5743 5745 5747 5749 5753 5756 5754 5756 5760 5761 5764 5766 5767 5769 5770 5772 5774 5776 5778 5780 5782 5785 5787 5789 5791 5793 5796 5798 5800 5802 5803 5805 5807 5808 5810 5811 5812 5814 5815 5817 5818 5819 5821 5822 5823 5824 5825 5825 5826 5827 5828 5828 5828 5828 5828 5829 5829 5831 5833 5834
5694 5695 5696 5697 5698 5700 5701 5702 5703 5705 5706 5708 5710 5711 5713 5715 5717 5719 5721 5723 5725 5727 5729 5730 5732 5734 5736 5738 5740 5742 5744 5746 5749 5751 5751 5753 5755 5757 5760 5762 5764 5765 5767 5770 5772 5774 5775 5777 5780 5782 5784 5787 5789 5791 5794 5796 5798 5799 5801 5802 5804 5805 5806 5808 5810 5812 5813 5814 5816 5817 5819 5820 5821 5822 5822 5823 5823 5824 5825 5826 5826 5826 5826 5826 5827 5829 5831 5832
5688 5689 5690 5691 5692 5694 5695 5696 5698 5699 5700 5702 5704 5705 5707 5709 5711 5713 5716 5718 5720 5722 5724 5726 5727 5729 5732 5734 5736 5738 5740 5742 5745 5746 5748 5749 5751 5753 5757 5758 5760 5762 5765 5767 5769 5771 5773 5775 5777 5779 5782 5784 5786 5789 5791 5793 5795 5797 5798 5799 5801 5802 5804 5806 5807 5809 5811 5812 5814 5815 5817 5818 5819 5820 5820 5821 5821 5822 5824 5824 5824 5825 5824 5825 5826 5827 5828 5829
5682 5683 5684 5685 5686 5688 5689 5690 5692 5693 5695 5696 5698 5699 5701 5703 5705 5707 5710 5712 5714 5716 5718 5720 5722 5725 5727 5729 5732 5734 5736 5738 5740 5742 5744 5746 5747 5750 5753 5755 5757 5759 5762 5764 5766 5769 5770 5772 5775 5777 5779 5781 5783 5786 5788 5790 5792 5794 5794 5796 5798 5799 5801 5803 5805 5806 5809 5810 5812 5813 5815 5816 5817 5817 5818 5818 5819 5820 5821 5821 5822 5822 5822 5823 5824 5825 5826 5827
5676 5677 5678 5679 5680 5681 5683 5684 5686 5687 5689 5690 5691 5693 5695 5697 5699 5702 5704 5706 5709 5711 5713 5715 5717 5720 5722 5725 5728 5730 5733 5735 5735 5738 5740 5742 5743 5746 5749 5752 5754 5756 5759 5760 5763 5765 5767 5770 5771 5773 5775 5778 5780 5782 5784 5786 5789 5790 5791 5793 5794 5797 5798 5800 5802 5804 5806 5808 5810 5812 5813 5814 5815 5815 5816 5816 5817 5818 5818 5818 5819 5820 5820 5821 5822 5822 5823 5825
5670 5670 5671 5673 5674 5675 5677 5678 5679 5681 5682 5684 5685 5687 5689 5691 5693 5696 5698 5700 5703 5705 5708 5709 5712 5715 5717 5721 5723 5726 5730 5730 5730 5733 5737 5738 5740 5742 5745 5748 5750 5753 5755 5757 5759 5762 5764 5766 5768 5770 5772 5774 5777 5778 5780 5783 5786 5787 5788 5790 5792 5794 5795 5797 5800 5802 5804 5806 5808 5810 5811 5812 5813 5814 5814 5814 5814 5814 5815 5816 5817 5818 5818 5819 5820 5820 5821 5823
5663 5664 5665 5666 5667 5669 5670 5672 5673 5675 5676 5678 5679 5681 5684 5685 5688 5690 5692 5695 5697 5699 5702 5704 5707 5710 5713 5716 5719 5723 5726 5724 5726 5730 5733 5735 5737 5739 5742 5745 5747 5749 5751 5753 5756 5759 5761 5763 5764 5767 5769 5771 5773 5775 5777 5780 5782 5784 5785 5786 5788 5791 5793 5796 5798 5800 5801 5803 5806 5807 5809 5810 5811 5812 5811 5811 5811 5812 5813 5814 5815 5816 5817 5817 5818 5818 5820 5820
5657 5658 5659 5660 5661 5662 5664 5665 5667 5668 5670 5672 5673 5676 5677 5680 5682 5684 5687 5689 5691 5694 5696 5699 5702 5704 5708 5711 5714 5719 5720 5719 5722 5726 5728 5731 5733 5735 5737 5740 5743 5745 5747 5750 5753 5755 5756 5758 5760 5763 5766 5768 5770 5772 5774 5777 5779 5780 5781 5783 5786 5788 5791 5794 5795 5797 5799 5801 5803 5805 5806 5807 5809 5809 5808 5808 5809 5810 5811 5812 5813 5814 5815 5815 5815 5816 5818 5818
5650 5651 5652 5653 5655 5656 5657 5659 5660 5662 5664 5665 5667 5669 5671 5674 5676 5678 5681 5683 5686 5688 5690 5693 5696 5699 5703 5706 5711 5715 5714 5715 5718 5721 5724 5726 5728 5731 5733 5736 5739 5741 5744 5747 5749 5750 5751 5754 5757 5760 5762 5765 5768 5769 5771 5774 5776 5776 5778 5780 5783 5786 5789 5791 5793 5795 5797 5799 5801 5802 5804 5805 5806 5806 5805 5805 5807 5808 5809 5810 5811 5812 5813 5813 5813 5815 5815 5815
5643 5644 5645 5647 5648 5649 5651 5652 5654 5655 5657 5659 5661 5663 5665 5667 5669 5672 5675 5678 5680 5682 5685 5687 5690 5694 5697 5702 5707 5708 5708 5711 5713 5716 5719 5721 5723 5727 5730 5733 5735 5738 5741 5743 5745 5746 5748 5751 5755 5757 5759 5762 5765 5766 5768 5771 5772 5773 5775 5778 5781 5784 5786 5788 5790 5792 5794 5796 5798 5800 5802 5803 5803 5802 5802 5803 5805 5807 5808 5809 5810 5810 5811 5811 5812 5812 5813 5813
5636 5637 5638 5639 5641 5642 5644 5645 5647 5649 5650 5652 5654 5656 5659 5661 5663 5666 5669 5672 5674 5676 5679 5682 5685 5689 5692 5699 5701 5700 5703 5707 5709 5712 5714 5716 5720 5723 5727 5730 5732 5735 5737 5739 5740 5742 5745 5748 5751 5753 5756 5760 5761 5763 5766 5768 5769 5771 5773 5776 5778 5781 5783 5785 5787 5790 5792 5793 5796 5798 5800 5800 5799 5799 5800 5802 5804 5805 5806 5807 5808 5809 5809 5809 5810 5810 5810 5811
5628 5629 5631 5632 5633 5634 5636 5638 5640 5642 5644 5646 5648 5650 5652 5654 5657 5660 5663 5665 5668 5670 5673 5676 5680 5683 5688 5694 5694 5694 5699 5702 5705 5707 5709 5713 5716 5719 5723 5726 5728 5731 5733 5734 5736 5739 5742 5745 5748 5750 5754 5756 5758 5761 5763 5765 5767 5768 5771 5773 5776 5778 5780 5782 5784 5787 5789 5791 5794 5796 5797 5797 5796 5797 5799 5801 5802 5803 5804 5805 5806 5806 5807 5807 5808 5808 5808 5809
5620 5622 5623 5624 5625 5627 5628 5630 5632 5634 5636 5638 5641 5643 5644 5647 5650 5653 5656 5659 5661 5664 5668 5671 5675 5678 5683 5688 5687 5690 5694 5697 5700 5702 5704 5708 5712 5715 5718 5721 5724 5726 5728 5730 5732 5735 5738 5742 5745 5748 5751 5753 5755 5758 5760 5762 5765 5766 5769 5771 5773 5775 5777 5779 5781 5784 5786 5788 5791 5793 5795 5794 5793 5795 5797 5799 5800 5801 5802 5803 5803 5804 5805 5805 5806 5806 5807 5807
5612 5613 5614 5616 5617 5619 5620 5622 5624 5627 5629 5631 5633 5635 5637 5640 5643 5646 5649 5652 5655 5658 5662 5665 5669 5673 5678 5680 5682 5685 5688 5692 5695 5697 5700 5704 5706 5709 5713 5716 5719 5721 5724 5726 5729 5732 5735 5738 5741 5744 5747 5750 5752 5755 5757 5759 5762 5765 5767 5768 5769 5771 5773 5776 5779 5781 5783 5785 5787 5790 5792 5791 5792 5794 5796 5797 5798 5799 5800 5800 5801 5802 5803 5804 5804 5805 5805 5805
5604 5605 5606 5608 5609 5611 5613 5614 5617 5619 5621 5623 5625 5627 5630 5633 5636 5639 5642 5645 5649 5652 5656 5659 5663 5667 5671 5674 5678 5680 5682 5687 5690 5692 5696 5699 5701 5704 5708 5711 5714 5717 5720 5722 5726 5729 5731 5735 5738 5741 5744 5747 5749 5752 5754 5757 5759 5762 5764 5765 5766 5768 5771 5774 5776 5778 5780 5782 5784 5788 5789 5789 5790 5792 5794 5795 5796 5797 5797 5797 5798 5799 5801 5802 5802 5803 5803 5803
5596 5597 5598 5599 5601 5603 5604 5606 5609 5611 5613 5615 5617 5620 5623 5626 5629 5632 5635 5639 5642 5646 5650 5653 5658 5662 5666 5669 5672 5674 5677 5681 5684 5687 5691 5693 5696 5699 5703 5706 5709 5713 5716 5719 5722 5724 5727 5731 5735 5737 5740 5743 5746 5749 5751 5754 5757 5759 5760 5762 5764 5767 5770 5772 5773 5775 5777 5779 5782 5786 5787 5787 5788 5790 5791 5793 5793 5794 5794 5795 5796 5798 5799 5800 5800 5801 5801 5802
5587 5588 5590 5591 5593 5595 5596 5599 5601 5603 5605 5607 5609 5612 5616 5619 5622 5625 5629 5632 5636 5640 5644 5648 5652 5656 5660 5664 5666 5669 5673 5677 5679 5683 5686 5689 5692 5695 5698 5702 5705 5709 5712 5715 5718 5720 5723 5727 5731 5735 5738 5741 5744 5746 5749 5751 5753 5755 5758 5760 5763 5765 5767 5769 5770 5772 5774 5777 5781 5784 5784 5785 5786 5788 5789 5790 5790 5791 5792 5793 5795 5795 5796 5797 5798 5799 5799 5800
5579 5580 5582 5583 5585 5587 5589 5591 5593 5595 5597 5599 5602 5605 5608 5611 5615 5618 5622 5627 5631 5634 5638 5642 5646 5650 5654 5657 5660 5664 5668 5672 5675 5678 5681 5684 5688 5691 5695 5698 5702 5705 5708 5711 5714 5717 5721 5724 5729 5733 5736 5738 5740 5742 5745 5747 5750 5753 5756 5758 5761 5763 5764 5766 5768 5770 5772 5776 5779 5781 5780 5782 5785 5786 5787 5787 5788 5789 5790 5791 5793 5793 5794 5794 5795 5795 5796 5797
5571 5573 5574 5575 5577 5579 5581 5583 5585 5588 5590 5592 5595 5597 5601 5605 5609 5612 5617 5621 5625 5628 5632 5637 5641 5645 5649 5652 5655 5659 5663 5667 5670 5673 5676 5680 5684 5687 5691 5694 5698 5701 5705 5707 5710 5714 5717 5721 5726 5730 5732 5734 5736 5739 5741 5744 5748 5751 5754 5756 5758 5761 5762 5763 5765 5767 5771 5775 5776 5776 5778 5781 5783 5784 5784 5785 5786 5787 5788 5790 5790 5791 5792 5792 5792 5793 5794 5795
5564 5565 5566 5568 5570 5572 5574 5576 5578 5581 5583 5586 5588 5590 5595 5599 5603 5608 5612 5616 5620 5623 5627 5631 5636 5641 5645 5648 5652 5655 5660 5664 5666 5670 5673 5676 5680 5683 5687 5691 5695 5698 5701 5704 5708 5711 5715 5719 5723 5725 5727 5729 5732 5736 5738 5741 5745 5749 5752 5754 5756 5758 5759 5761 5762 5764 5769 5773 5773 5773 5776 5779 5780 5781 5781 5782 5784 5785 5787 5788 5789 5790 5790 5790 5791 5792 5793 5793
5556 5558 5559 5561 5563 5565 5567 5570 5572 5575 5578 5580 5582 5585 5589 5594 5598 5603 5607 5611 5615 5619 5623 5628 5633 5639 5642 5645 5648 5652 5658 5661 5663 5667 5670 5674 5678 5681 5685 5688 5692 5695 5698 5702 5706 5709 5713 5716 5718 5720 5723 5727 5730 5733 5735 5738 5742 5745 5748 5751 5754 5756 5757 5758 5760 5763 5768 5770 5770 5771 5774 5776 5778 5778 5779 5781 5782 5784 5785 5786 5787 5788 5788 5788 5789 5790 5791 5791
5549 5551 5553 5555 5557 5559 5562 5564 5567 5570 5572 5574 5577 5581 5585 5590 5594 5599 5602 5607 5611 5615 5620 5624 5629 5634 5638 5640 5643 5649 5653 5656 5660 5663 5666 5671 5675 5678 5682 5685 5689 5692 5696 5700 5703 5706 5709 5712 5715 5717 5721 5724 5727 5729 5732 5735 5738 5742 5745 5748 5751 5754 5755 5756 5758 5761 5766 5767 5768 5770 5772 5773 5775 5776 5777 5779 5781 5783 5784 5784 5785 5786 5786 5786 5787 5788 5788 5788
5543 5545 5547 5549 5552 5554 5556 5560 5563 5566 5567 5569 5573 5577 5582 5587 5592 5595 5599 5603 5607 5611 5616 5620 5626 5631 5632 5634 5639 5645 5649 5652 5656 5660 5663 5667 5672 5676 5679 5682 5686 5689 5693 5696 5699 5702 5705 5708 5712 5715 5718 5721 5724 5726 5728 5732 5736 5739 5742 5746 5749 5751 5752 5754 5756 5759 5763 5765 5766 5768 5769 5770 5772 5774 5776 5777 5779 5781 5782 5782 5783 5783 5783 5784 5784 5785 5785 5786
5537 5539 5541 5544 5546 5549 5552 5556 5559 5561 5563 5566 5571 5575 5580 5585 5589 5593 5597 5600 5604 5608 5613 5617 5623 5627 5628 5632 5638 5642 5646 5650 5654 5656 5659 5664 5668 5672 5676 5679 5683 5686 5689 5692 5695 5698 5702 5705 5709 5712 5715 5718 5721 5723 5726 5730 5733 5736 5740 5744 5746 5748 5750 5753 5755 5757 5761 5763 5764 5765 5766 5768 5770 5772 5774 5776 5778 5779 5780 5780 5780 5780 5781 5781 5782 5783 5783 5783
5532 5534 5537 5539 5542 5545 5549 5553 5555 5558 5561 5565 5569 5574 5579 5583 5587 5591 5594 5597 5602 5606 5610 5615 5620 5623 5626 5632 5637 5640 5645 5648 5650 5653 5657 5660 5664 5667 5671 5675 5679 5683 5686 5688 5691 5696 5699 5702 5705 5709 5712 5715 5718 5721 5725 5728 5731 5735 5739 5742 5743 5746 5749 5751 5753 5755 5758 5760 5762 5763 5764 5766 5768 5770 5772 5774 5775 5777 5778 5778 5778 5778 5778 5779 5780 5781 5781 5781
5529 5531 5533 5536 5540 5543 5547 5550 5553 5556 5560 5564 5568 5573 5577 5581 5585 5588 5591 5595 5600 5604 5609 5614 5617 5620 5624 5630 5634 5639 5644 5647 5649 5652 5655 5658 5661 5665 5668 5672 5676 5680 5683 5686 5690 5694 5698 5700 5703 5706 5709 5713 5716 5720 5723 5727 5730 5734 5737 5739 5741 5744 5747 5749 5751 5753 5755 5757 5759 5760 5762 5764 5766 5768 5770 5771 5772 5774 5776 5777 5776 5776 5776 5777 5778 5778 5779 5779
5526 5529 5531 5534 5538 5542 5545 5548 5551 5555 5559 5563 5567 5571 5574 5578 5582 5585 5588 5595 5599 5602 5607 5611 5614 5618 5622 5627 5632 5637 5641 5643 5647 5651 5654 5656 5659 5662 5666 5670 5674 5677 5680 5684 5688 5693 5695 5697 5700 5704 5707 5711 5715 5718 5721 5725 5729 5732 5734 5736 5738 5741 5744 5746 5748 5750 5752 5754 5756 5758 5760 5762 5764 5766 5767 5768 5769 5770 5772 5774 5774 5775 5775 5775 5776 5776 5777 5777
5525 5528 5530 5533 5536 5540 5543 5546 5550 5554 5558 5562 5565 5568 5571 5575 5579 5582 5588 5594 5597 5600 5605 5609 5613 5617 5621 5625 5630 5634 5637 5640 5643 5647 5650 5653 5657 5660 5664 5668 5671 5674 5677 5681 5686 5690 5691 5693 5697 5701 5705 5708 5711 5714 5718 5722 5726 5729 5731 5733 5735 5738 5742 5744 5745 5747 5749 5751 5754 5755 5758 5761 5763 5764 5764 5764 5766 5767 5769 5770 5771 5772 5772 5773 5773 5774 5774 5774
5524 5527 5530 5533 5536 5539 5542 5545 5549 5552 5556 5560 5563 5566 5569 5573 5576 5581 5588 5593 5595 5599 5603 5608 5612 5616 5620 5625 5630 5632 5634 5637 5640 5643 5646 5649 5653 5656 5660 5663 5666 5669 5673 5678 5683 5685 5687 5690 5694 5699 5702 5705 5707 5710 5714 5718 5721 5724 5727 5730 5733 5736 5738 5740 5742 5744 5745 5748 5751 5753 5756 5759 5760 5760 5760 5762 5763 5764 5766 5767 5768 5769 5769 5770 5771 5771 5771 5771
5524 5527 5530 5532 5535 5538 5541 5544 5548 5550 5554 5558 5561 5564 5568 5572 5576 5582 5587 5591 5594 5598 5602 5606 5610 5614 5619 5624 5628 5631 5633 5635 5637 5640 5644 5647 5651 5654 5657 5661 5663 5666 5670 5676 5680 5682 5685 5689 5693 5697 5700 5702 5705 5708 5711 5714 5716 5719 5723 5726 5729 5732 5734 5737 5738 5740 5742 5746 5749 5751 5754 5756 5756 5757 5758 5759 5760 5762 5764 5764 5765 5766 5766 5767 5768 5768 5768 5768
5524 5527 5530 5533 5535 5537 5539 5543 5546 5549 5553 5558 5561 5565 5569 5573 5577 5583 5586 5589 5593 5596 5600 5604 5608 5612 5617 5620 5624 5628 5631 5633 5636 5639 5643 5646 5650 5654 5657 5660 5663 5666 5672 5677 5678 5680 5684 5688 5692 5695 5698 5700 5703 5706 5709 5711 5713 5716 5720 5724 5726 5728 5730 5733 5735 5737 5740 5744 5747 5750 5752 5752 5751 5753 5755 5756 5758 5760 5761 5762 5762 5763 5764 5764 5765 5765 5766 5765
5524 5526 5529 5532 5534 5536 5539 5542 5546 5549 5554 5558 5561 5565 5569 5573 5578 5583 5586 5589 5592 5595 5598 5601 5605 5609 5614 5618 5622 5625 5627 5631 5634 5637 5641 5644 5648 5651 5655 5658 5661 5666 5672 5676 5677 5679 5683 5686 5690 5694 5696 5699 5702 5705 5708 5711 5714 5717 5721 5723 5726 5727 5729 5732 5734 5736 5740 5743 5746 5748 5748 5747 5747 5749 5752 5754 5756 5757 5758 5759 5760 5761 5761 5761 5762 5762 5763 5763
5524 5526 5528 5530 5533 5536 5539 5542 5546 5550 5554 5558 5561 5565 5569 5574 5578 5581 5584 5587 5591 5594 5596 5599 5603 5607 5611 5615 5619 5623 5626 5630 5632 5636 5639 5643 5646 5650 5653 5657 5660 5666 5671 5673 5675 5678 5681 5685 5689 5693 5695 5699 5702 5705 5708 5711 5714 5717 5720 5722 5724 5726 5729 5731 5733 5736 5739 5741 5743 5744 5743 5743 5743 5746 5750 5752 5754 5755 5756 5757 5757 5758 5758 5758 5759 5760 5760 5761
5524 5526 5528 5529 5532 5536 5539 5542 5546 5550 5554 5557 5561 5565 5570 5575 5577 5580 5584 5587 5590 5592 5595 5598 5603 5607 5610 5613 5616 5620 5625 5629 5632 5635 5638 5642 5646 5649 5653 5657 5661 5666 5669 5671 5674 5677 5681 5685 5688 5692 5695 5698 5700 5704 5707 5710 5712 5715 5717 5720 5722 5724 5727 5729 5731 5733 5736 5738 5739 5740 5740 5740 5741 5744 5747 5749 5751 5753 5754 5754 5754 5755 5755 5756 5756 5757 5758 5758
5523 5525 5527 5529 5533 5536 5539 5543 5546 5550 5553 5557 5561 5566 5571 5573 5576 5580 5584 5586 5589 5592 5594 5597 5602 5606 5609 5612 5614 5618 5623 5627 5630 5634 5638 5641 5644 5647 5652 5656 5661 5665 5668 5670 5673 5677 5680 5684 5687 5690 5694 5696 5699 5702 5706 5708 5711 5713 5715 5718 5720 5722 5724 5726 5728 5729 5732 5733 5735 5736 5737 5737 5739 5742 5744 5746 5748 5750 5751 5751 5752 5752 5753 5753 5754 5755 5755 5755
5522 5524 5526 5530 5533 5536 5539 5543 5546 5550 5554 5558 5562 5566 5570 5573 5576 5581 5584 5586 5589 5592 5594 5597 5601 5604 5608 5611 5614 5618 5622 5625 5629 5633 5637 5641 5644 5647 5651 5655 5659 5663 5666 5669 5672 5676 5680 5683 5686 5689 5692 5695 5698 5701 5703 5706 5709 5711 5713 5715 5717 5719 5721 5723 5725 5726 5728 5730 5731 5732 5734 5735 5737 5739 5741 5743 5745 5747 5747 5748 5750 5750 5751 5751 5752 5752 5753 5752
5521 5524 5527 5530 5533 5536 5539 5543 5547 5551 5555 5558 5562 5566 5570 5573 5577 5580 5583 5585 5588 5591 5594 5597 5600 5603 5607 5611 5615 5617 5621 5625 5630 5633 5636 5640 5643 5647 5650 5654 5657 5661 5664 5667 5671 5675 5678 5681 5684 5687 5690 5694 5696 5699 5701 5703 5706 5708 5710 5712 5714 5716 5719 5721 5723 5724 5726 5727 5728 5729 5731 5732 5734 5736 5738 5740 5743 5744 5745 5746 5747 5748 5748 5749 5750 5750 5750 5750
5521 5524 5527 5531 5534 5537 5541 5545 5549 5552 5556 5559 5563 5567 5571 5574 5577 5580 5582 5584 5587 5590 5593 5595 5599 5603 5607 5610 5614 5617 5621 5626 5630 5632 5635 5639 5643 5646 5650 5653 5656 5659 5662 5666 5669 5673 5677 5679 5683 5685 5689 5692 5695 5697 5700 5702 5704 5706 5708 5710 5712 5714 5716 5718 5720 5722 5723 5725 5726 5727 5728 5730 5732 5734 5735 5738 5740 5741 5743 5744 5745 5745 5746 5747 5748 5748 5748 5748
5523 5526 5529 5532 5535 5538 5542 5546 5550 5553 5557 5561 5564 5568 5571 5575 5578 5580 5582 5584 5586 5590 5594 5596 5599 5603 5606 5609 5613 5617 5621 5624 5629 5632 5635 5639 5642 5645 5649 5653 5655 5657 5660 5664 5668 5672 5675 5677 5681 5684 5687 5690 5692 5695 5698 5700 5702 5704 5706 5709 5710 5712 5713 5715 5717 5719 5720 5722 5723 5725 5727 5729 5730 5732 5734 5736 5738 5739 5741 5742 5742 5742 5743 5745 5745 5745 5746 5746
5524 5528 5530 5534 5537 5541 5544 5548 5551 5555 5558 5562 5566 5570 5574 5577 5579 5580 5582 5584 5586 5590 5595 5598 5600 5604 5607 5609 5612 5616 5620 5623 5627 5631 5635 5638 5641 5645 5649 5653 5655 5657 5659 5663 5667 5671 5673 5676 5679 5682 5685 5688 5691 5693 5696 5698 5700 5702 5704 5706 5708 5709 5711 5713 5715 5716 5718 5720 5721 5723 5725 5727 5728 5730 5733 5734 5736 5738 5738 5739 5739 5740 5740 5741 5742 5742 5743 5743
5527 5530 5532 5535 5539 5542 5545 5549 5553 5556 5560 5563 5568 5572 5575 5577 5579 5581 5583 5584 5586 5591 5596 5598 5601 5605 5608 5610 5613 5615 5619 5623 5627 5631 5635 5638 5641 5645 5648 5652 5654 5656 5658 5662 5666 5669 5671 5674 5677 5680 5683 5686 5689 5692 5694 5696 5698 5700 5702 5704 5706 5707 5709 5711 5713 5715 5716 5718 5720 5721 5723 5725 5727 5729 5731 5732 5734 5735 5736 5736 5737 5737 5738 5738 5739 5739 5740 5740
5529 5532 5535 5537 5540 5543 5547 5551 5555 5558 5562 5566 5570 5574 5576 5578 5580 5582 5583 5585 5589 5593 5596 5599 5603 5606 5609 5612 5615 5617 5621 5624 5626 5630 5634 5637 5640 5644 5647 5650 5653 5655 5658 5662 5665 5668 5670 5672 5675 5678 5680 5683 5686 5689 5691 5693 5696 5698 5700 5702 5704 5706 5707 5709 5711 5713 5714 5715 5717 5719 5721 5723 5726 5727 5729 5730 5731 5732 5733 5733 5734 5734 5735 5736 5736 5736 5737 5737
5532 5534 5537 5540 5542 5545 5549 5553 5557 5561 5565 5569 5572 5575 5577 5579 5581 5582 5584 5587 5591 5595 5599 5602 5604 5607 5611 5614 5617 5620 5623 5626 5628 5630 5633 5637 5640 5643 5647 5650 5652 5655 5659 5662 5665 5667 5669 5671 5673 5676 5679 5681 5684 5686 5689 5691 5693 5696 5698 5700 5702 5704 5705 5707 5709 5711 5712 5714 5715 5717 5719 5721 5723 5724 5726 5727 5728 5729 5730 5730 5731 5732 5733 5733 5733 5734 5734 5734
5534 5537 5540 5542 5545 5548 5552 5555 5559 5564 5568 5571 5574 5576 5578 5580 5582 5583 5585 5590 5593 5596 5600 5604 5606 5609 5612 5615 5618 5621 5625 5628 5631 5633 5635 5637 5640 5643 5646 5649 5652 5655 5658 5661 5663 5666 5668 5670 5673 5676 5679 5681 5684 5686 5689 5691 5693 5695 5696 5698 5700 5702 5703 5705 5707 5708 5710 5712 5713 5715 5717 5719 5720 5722 5723 5724 5725 5726 5727 5728 5729 5730 5730 5730 5730 5731 5731 5732
5536 5539 5542 5546 5549 5552 5555 5558 5562 5566 5569 5573 5575 5578 5580 5581 5583 5585 5587 5591 5595 5598 5601 5605 5607 5610 5612 5615 5618 5621 5625 5628 5631 5634 5636 5638 5641 5644 5646 5649 5652 5655 5658 5660 5662 5665 5667 5669 5672 5675 5678 5680 5683 5685 5687 5690 5691 5693 5695 5696 5698 5700 5701 5703 5705 5706 5708 5710 5711 5713 5714 5716 5717 5719 5720 5722 5722 5723 5724 5725 5726 5727 5728 5728 5728 5728 5729 5729
5538 5541 5544 5548 5551 5554 5557 5561 5565 5568 5572 5575 5577 5579 5581 5583 5584 5587 5590 5593 5596 5599 5602 5605 5608 5610 5613 5616 5618 5622 5625 5628 5631 5633 5636 5639 5641 5644 5646 5649 5652 5654 5657 5659 5661 5664 5666 5668 5670 5673 5676 5678 5681 5683 5685 5687 5689 5691 5693 5695 5696 5698 5700 5701 5703 5704 5706 5707 5709 5711 5712 5713 5715 5716 5717 5719 5720 5720 5721 5723 5724 5725 5725 5726 5725 5725 5726 5727
5541 5544 5546 5549 5553 5556 5560 5564 5567 5571 5574 5576 5578 5580 5583 5585 5587 5590 5592 5595 5597 5600 5603 5606 5608 5611 5613 5617 5619 5623 5626 5628 5631 5634 5636 5639 5641 5644 5647 5649 5651 5654 5656 5658 5661 5663 5665 5667 5669 5672 5674 5677 5679 5681 5683 5685 5687 5689 5691 5693 5694 5696 5697 5699 5700 5702 5703 5705 5707 5708 5709 5711 5712 5714 5715 5716 5717 5718 5718 5719 5721 5722 5722 5722 5722 5722 5723 5724
5543 5547 5549 5551 5555 5559 5562 5566 5569 5572 5575 5577 5579 5582 5585 5587 5589 5592 5594 5596 5599 5601 5604 5607 5610 5612 5614 5617 5620 5623 5625 5628 5631 5634 5637 5639 5641 5644 5646 5649 5651 5654 5656 5658 5660 5662 5664 5666 5668 5671 5673 5675 5677 5679 5681 5683 5685 5687 5688 5690 5692 5693 5695 5697 5698 5699 5701 5703 5704 5706 5707 5708 5710 5711 5712 5713 5714 5715 5716 5716 5717 5718 5719 5719 5719 5719 5720 5721
5545 5548 5551 5554 5557 5561 5565 5568 5571 5575 5577 5579 5581 5583 5586 5589 5591 5594 5596 5598 5600 5603 5605 5608 5610 5613 5615 5617 5620 5623 5625 5628 5631 5634 5636 5639 5641 5643 5645 5648 5650 5652 5655 5657 5659 5661 5663 5665 5667 5670 5672 5673 5675 5677 5679 5681 5683 5684 5686 5688 5689 5691 5693 5694 5696 5697 5699 5701 5702 5703 5704 5705 5707 5708 5709 5710 5711 5712 5713 5713 5714 5715 5716 5716 5716 5717 5717 5718
5546 5549 5552 5556 5560 5563 5567 5571 5574 5577 5579 5580 5582 5585 5587 5590 5593 5595 5597 5600 5602 5604 5606 5609 5611 5613 5615 5618 5621 5623 5626 5628 5631 5633 5636 5638 5640 5642 5644 5646 5649 5651 5653 5655 5657 5659 5662 5664 5666 5668 5670 5671 5673 5675 5677 5679 5680 5682 5683 5685 5687 5689 5690 5692 5693 5695 5696 5698 5700 5701 5702 5703 5704 5705 5706 5707 5708 5709 5710 5710 5711 5713 5713 5713 5713 5714 5714 5715